Weather in Glowno

Poland     51°57′43″N   19°42′42″E
temp.,
°C
wind,
m/s
gust,
m/s
humid.,
%
clouds,
%
prec.,
mm/h
press.,
hPa
HPBL,
m
10 may, mon
mon1023:00+11sse49898 0.0 1016131
02:00+10sse49905 0.0 1016134
05:00+9sse5118635 0.0 1016161
08:00+14sse610728 0.0 1016271
11:00+19se685871 0.0 1015573
14:00+22se675050 0.0 1014935
17:00+22sse585985 0.0 10131082
20:00+17se5118129 0.0 1014206
11 may, tue
tue1123:00+13sse488651 0.0 1015136
02:00+12se478840 0.0 1015114
05:00+11ese5109444 0.0 1013176
08:00+15se7137914 0.0 1013378
11:00+20se8116398 0.0 1012732
14:00+23se8115713 0.0 10111106
17:00+22se8116365 0.0 1010988
20:00+18ese7157311 0.0 1010544
12 may, wed
wed1223:00+15ese817710 0.0 1011511
02:00+13ese716690 0.0 1010445
05:00+12ese716645 0.0 1010465
08:00+15ese816760 0.0 1009656
11:00+19ese1014660 0.0 10091208
14:00+20ese11126471 0.0 10081625
17:00+18ese812650 0.1 10081347
20:00+14ese814670 0.1 1007786
13 may, thu
thu1323:00+11ese714710 0.0 1007603
02:00+8e6127962 0.0 1005433
05:00+6e5118616 0.0 1004343
08:00+10e56772 0.0 1003467
11:00+13e4573100 0.0 1002889
14:00+12sse3381100 0.1 1002458
17:00+13s1381100 0.8 1002592
20:00+12w1189100 0.8 100214
14 may, fri
fri1423:00+10ssw3495100 0.0 100362
02:00+8ssw489470 0.0 1003150
05:00+7ssw3795100 0.0 1004145
08:00+11sw4788100 0.0 1004333
11:00+13sw5678100 0.0 1005579
14:00+15sw5672100 0.0 1006926
17:00+14sw5776100 0.1 1007907
20:00+12sw5990100 0.2 1008395